Simultaneous Nadir Overpasses (SNOs) Predictions

Prediction of SNOs between NOAA-20 and METOP-C Satellite Orbit:

Table of predicted SNOs for the next 14.0 days since TLE Epoch: 3/15/2025
Index Date (NOAA-20) Time (NOAA-20) Lat,Lon (NOAA-20) SZA (NOAA-20 ) Date (METOP-C) Time (METOP-C) Lat,Lon (METOP-C) SZA (METOP-C ) Distance(km) Time Diff (sec)
1 03/15/2025 03:46:34 72.63, 114.99 74.90 03/15/2025 03:46:57 72.59, 114.98 74.86 3.63 23
2 03/15/2025 04:37:17 -72.61, -77.66 105.14 03/15/2025 04:37:39 -72.61, -77.66 105.15 0.37 22
3 03/15/2025 05:28:03 72.59, 89.70 74.82 03/15/2025 05:28:19 72.57, 89.60 74.81 3.58 16
4 03/15/2025 06:18:47 -72.62,-103.05 105.16 03/15/2025 06:19:01 -72.59,-103.04 105.19 3.01 14
5 03/15/2025 07:09:33 72.59, 64.30 74.81 03/15/2025 07:09:40 72.60, 64.32 74.81 1.25 7
6 03/15/2025 08:00:16 -72.58,-128.34 105.23 03/15/2025 08:00:23 -72.57,-128.42 105.24 2.89 7
7 03/15/2025 08:51:03 72.60, 38.91 74.79 03/15/2025 08:51:02 72.58, 38.94 74.77 2.37 1
8 03/15/2025 09:41:46 -72.59,-153.73 105.25 03/15/2025 09:41:44 -72.60,-153.70 105.24 2.04 2
9 03/15/2025 10:32:32 72.56, 13.62 74.71 03/15/2025 10:32:24 72.56, 13.56 74.72 2.05 8
10 03/15/2025 11:23:16 -72.60,-179.13 105.27 03/15/2025 11:23:06 -72.58,-179.08 105.28 2.12 10
11 03/15/2025 12:14:02 72.57, -11.77 74.70 03/15/2025 12:13:45 72.60, -11.72 74.72 3.17 17
12 03/15/2025 13:04:45 -72.55, 155.58 105.34 03/15/2025 13:04:28 -72.56, 155.54 105.33 1.72 17
13 03/15/2025 13:55:32 72.58, -37.17 74.68 03/15/2025 13:55:07 72.58, -37.10 74.68 2.39 25
14 03/15/2025 14:46:15 -72.56, 130.19 105.36 03/15/2025 14:45:50 -72.54, 130.16 105.37 2.62 25
15 03/15/2025 15:37:01 72.54, -62.46 74.61 03/15/2025 15:36:29 72.56, -62.48 74.63 1.78 32
16 03/15/2025 16:27:45 -72.57, 104.80 105.38 03/15/2025 16:27:11 -72.57, 104.88 105.37 2.82 34
17 03/15/2025 17:18:31 72.55, -87.85 74.59 03/15/2025 17:17:51 72.54, -87.86 74.58 1.70 40
18 03/15/2025 18:09:14 -72.53, 79.51 105.45 03/15/2025 18:08:33 -72.55, 79.50 105.42 2.34 41
19 03/15/2025 19:00:00 72.51,-113.14 74.52 03/15/2025 18:59:13 72.52,-113.24 74.54 3.33 47
20 03/15/2025 19:50:44 -72.54, 54.11 105.47 03/15/2025 19:49:55 -72.53, 54.12 105.46 0.99 49
21 03/15/2025 20:41:30 72.52,-138.54 74.50 03/15/2025 20:40:34 72.55,-138.52 74.54 3.10 56
22 03/15/2025 21:32:13 -72.50, 28.82 105.54 03/15/2025 21:31:17 -72.51, 28.74 105.51 3.03 56
23 03/15/2025 22:23:00 72.53,-163.93 74.48 03/15/2025 22:21:56 72.53,-163.90 74.49 1.10 64
24 03/15/2025 23:13:43 -72.51, 3.43 105.56 03/15/2025 23:12:39 -72.49, 3.36 105.56 2.90 64
25 03/16/2025 00:04:29 72.49, 170.78 74.41 03/16/2025 00:03:18 72.51, 170.72 74.45 2.82 71
26 03/16/2025 00:55:13 -72.52, -21.97 105.58 03/16/2025 00:54:00 -72.53, -21.92 105.56 1.72 73
27 03/16/2025 01:45:56 72.34, 145.69 74.22 03/16/2025 01:44:43 72.33, 145.04 74.27 22.08 73
28 03/16/2025 02:36:39 -72.33, -46.95 105.82 03/16/2025 02:35:26 -72.30, -47.70 105.78 25.37 73
29 03/16/2025 03:27:20 72.05, 120.90 73.87 03/16/2025 03:26:10 72.06, 119.16 74.00 59.33 70
30 03/16/2025 04:18:03 -72.03, -71.75 106.17 03/16/2025 04:16:53 -72.03, -73.57 106.05 62.32 70



Historial Predications of SNOs between NOAA-20 and METOP-C
